Theta_e
308 308 308 308 308 307 307 306 307 308 309 309 307 306 305 305 304 300 296 292 291 290 291 292 294 291 289 288 285 287 287 293 290 289 288 289 289 292 291 294 292 290 287 287 290 287 285 303 302 297 299 306 308 307
307 307 307 307 307 306 306 306 306 306 306 307 308 306 306 305 304 303 294 296 295 291 287 292 294 296 294 294 290 291 289 291 291 290 291 291 289 291 290 288 296 291 297 294 294 293 301 304 303 307 307 307 309 303
306 306 306 306 306 306 305 305 305 305 307 307 306 306 305 304 305 303 298 297 293 289 287 286 288 294 298 297 297 287 291 294 296 300 295 293 288 293 287 291 293 297 304 296 297 300 302 305 307 308 307 306 304 303
305 305 305 304 304 304 304 304 305 306 308 308 306 305 305 305 305 303 292 292 294 287 285 285 295 294 298 297 296 297 297 302 299 299 295 293 290 296 292 292 290 295 296 297 298 303 303 305 307 310 306 305 304 304
304 303 302 302 303 303 303 304 305 306 307 307 306 305 305 304 303 298 293 295 297 290 286 288 294 295 296 295 295 296 295 295 294 294 294 292 296 295 296 292 292 299 298 295 295 303 303 301 307 310 304 303 303 302
302 302 301 302 302 302 303 303 305 306 307 306 305 304 303 302 301 290 286 298 299 298 291 281 290 293 295 296 294 296 296 297 299 296 295 296 299 295 290 289 298 300 302 303 300 304 304 308 309 310 305 304 304 303
301 301 301 301 301 301 302 303 305 307 307 305 303 303 302 302 293 286 284 298 301 292 288 286 284 291 294 300 301 298 298 295 298 298 295 295 294 297 293 288 293 298 300 302 304 302 305 307 307 306 305 305 303 300
301 300 300 300 300 301 302 303 305 307 306 304 303 303 302 302 298 292 294 300 300 292 290 286 283 286 293 293 290 298 297 298 298 296 297 295 296 296 290 294 295 297 298 298 299 301 305 306 303 300 298 297 295 294
300 300 300 300 300 300 303 304 306 306 305 302 302 302 298 295 287 290 303 304 299 294 289 288 285 280 291 288 289 292 298 292 299 294 294 295 293 289 292 293 294 295 294 295 297 303 304 302 299 298 296 295 293 292
299 299 299 300 300 301 303 304 306 305 303 302 294 291 288 291 301 302 300 295 293 294 292 287 291 284 289 285 285 288 290 292 289 293 296 292 291 294 298 298 298 298 298 295 297 299 299 298 296 296 295 295 293 292
299 300 300 300 300 301 303 305 305 301 299 292 293 291 293 299 294 291 290 290 291 288 291 289 289 288 295 284 284 288 286 292 287 290 291 289 289 293 295 297 298 296 295 296 300 299 298 297 295 294 293 293 292 291
299 299 300 300 300 301 303 305 302 293 291 293 290 292 291 289 288 288 286 289 287 284 287 290 291 291 291 294 291 290 290 293 287 296 291 283 289 295 297 296 295 295 296 296 297 296 297 296 295 294 293 292 292 292
299 299 299 300 300 301 304 304 301 298 295 292 290 286 288 284 278 283 280 283 287 292 294 296 290 292 292 293 290 290 290 287 295 291 287 287 295 297 297 296 296 297 297 296 295 296 296 295 296 295 293 294 293 292
299 299 299 300 300 302 304 302 300 297 291 286 286 279 282 280 282 282 283 286 291 292 291 290 289 289 290 288 290 289 292 293 286 282 284 289 295 296 297 297 296 295 296 296 296 296 295 295 295 295 295 295 294 292
299 299 299 300 301 303 303 301 299 293 289 285 287 280 281 285 286 288 291 290 292 292 291 289 289 289 287 287 289 291 289 287 286 282 286 292 297 297 297 298 297 297 296 296 297 296 296 296 295 294 295 294 293 293
299 298 298 301 303 303 302 299 294 292 289 287 287 285 285 282 283 286 286 286 290 291 290 289 286 285 286 288 289 289 288 284 290 294 292 291 297 298 299 299 298 298 297 296 297 297 296 294 293 293 293 293 292 291
298 295 302 302 303 302 299 294 291 288 286 285 283 286 284 283 283 284 285 288 291 289 286 287 284 285 290 290 289 292 289 292 291 297 292 295 296 298 297 298 297 294 293 293 293 293 292 293 293 292 290 291 292 292
293 299 303 303 300 298 295 294 291 286 283 284 281 282 284 285 284 285 287 288 289 288 289 289 290 287 287 286 286 292 295 299 300 296 295 299 300 301 300 294 294 294 294 293 293 292 292 291 290 290 291 291 291 290
297 299 302 301 298 293 288 289 290 284 284 284 284 284 285 285 286 288 288 289 291 294 293 293 288 285 287 294 293 294 293 297 296 296 297 301 303 300 297 296 295 294 294 293 292 292 292 292 291 291 291 291 289 289
300 300 302 300 299 291 288 287 289 285 283 284 284 283 284 285 287 287 288 289 290 293 291 289 287 291 293 294 297 296 297 297 299 299 299 300 302 299 297 296 295 295 294 293 292 291 291 291 291 291 291 290 289 288
299 299 301 298 294 293 290 289 288 286 284 282 285 285 285 287 285 285 286 290 288 289 286 289 291 293 294 295 297 297 297 298 300 300 299 297 299 298 297 296 295 294 292 291 291 290 290 289 290 291 290 290 290 289
295 297 294 295 290 289 288 287 284 285 285 285 285 286 284 283 285 287 289 287 286 288 289 291 293 293 294 296 297 298 298 299 298 298 298 298 297 297 296 296 294 292 292 292 292 291 291 291 291 291 290 289 290 289
296 294 291 290 286 286 282 286 283 283 280 282 288 287 285 288 290 291 287 288 289 292 293 293 294 294 294 296 300 299 299 299 300 301 300 301 300 299 298 298 298 293 290 290 293 291 291 289 289 290 290 290 289 288
296 290 286 284 283 280 285 283 284 283 283 282 282 282 284 287 290 288 289 289 291 295 294 294 294 293 294 297 297 296 297 297 299 302 303 301 299 299 300 300 301 300 295 293 294 292 291 292 290 291 290 290 289 288
283 284 284 275 283 282 282 283 283 283 282 283 283 283 284 288 287 287 286 287 290 293 293 294 294 293 293 295 295 295 298 299 299 298 302 302 301 300 300 301 301 301 299 294 293 293 292 292 292 291 291 290 289 288
276 280 281 282 282 281 281 281 283 283 284 284 284 287 289 287 286 286 287 288 291 294 296 296 295 293 292 294 294 295 297 300 300 297 299 302 302 300 299 298 296 298 299 298 297 295 293 293 293 292 291 290 288 290
276 280 282 286 285 285 283 287 289 287 286 285 285 287 288 285 286 290 293 293 290 292 295 292 292 297 298 297 297 298 300 302 301 301 302 303 303 304 301 298 297 298 298 297 297 296 295 294 294 293 292 291 291 291
282 282 280 283 283 285 284 285 284 286 288 291 291 287 286 287 286 291 293 295 294 292 291 292 293 294 295 298 299 299 301 302 301 302 301 301 300 301 300 299 299 290 297 299 298 297 297 296 295 294 292 292 292 293
282 284 284 282 286 286 286 286 285 289 293 291 288 288 289 292 294 294 295 295 296 295 294 293 294 297 299 303 303 303 304 302 299 296 295 295 295 297 299 301 300 298 297 295 288 294 297 297 296 296 295 294 294 294
282 284 282 285 284 284 287 290 290 293 294 294 294 293 292 293 295 297 296 295 295 295 298 299 299 299 301 302 302 303 305 304 300 299 296 295 297 299 299 300 300 298 298 297 295 291 286 292 291 294 294 294 293 293
284 284 283 284 284 287 291 292 293 294 295 293 292 291 290 292 295 297 297 298 298 299 299 299 300 299 299 299 300 300 300 301 303 303 302 302 300 300 299 299 298 298 298 297 295 295 294 294 295 295 295 295 295 294
283 283 284 282 283 289 290 288 289 289 289 290 288 290 292 292 290 294 294 299 298 298 294 297 297 295 301 304 303 304 294 300 298 301 303 302 300 299 299 298 298 298 297 297 297 297 297 297 296 296 295 295 295 295
284 286 287 288 286 285 288 288 287 287 288 287 288 290 290 290 288 289 293 299 298 298 298 299 300 299 301 301 301 299 292 295 290 284 286 291 292 295 298 298 298 298 298 298 297 297 296 295 295 294 295 295 295 294
Wind_Speed
10 11 11 11 10 11 10 12 12 12 12 5 4 5 5 7 8 3 3 1 1 4 11 7 2 4 3 2 2 6 9 1 4 4 3 4 3 4 4 3 2 2 4 2 1 2 2 10 10 3 4 9 22 18
10 10 11 10 10 10 12 11 11 11 10 8 8 8 8 6 6 5 2 3 0 4 9 5 17 14 10 18 8 3 4 3 4 3 2 3 3 4 5 3 4 2 1 1 4 3 5 7 6 10 6 6 12 11
11 11 10 9 9 10 10 11 11 11 10 8 8 8 9 9 9 5 3 1 1 4 7 4 4 5 9 16 13 4 3 3 3 4 2 2 3 3 3 3 5 5 1 2 2 4 5 5 11 11 8 10 14 19
11 11 10 9 9 9 10 11 11 12 11 7 6 7 9 9 9 7 2 2 1 3 5 9 4 10 5 3 10 13 7 1 2 1 1 2 3 2 2 5 4 5 7 3 4 3 4 2 12 8 8 13 14 13
9 10 10 10 10 9 9 10 10 12 11 6 6 7 7 8 9 5 4 4 5 2 4 8 16 5 1 5 10 10 11 3 1 2 2 2 3 3 2 3 4 2 5 4 3 4 4 5 8 7 9 9 15 22
10 10 11 9 10 9 9 10 10 12 7 5 7 7 7 9 7 3 4 3 3 3 4 6 5 7 8 6 5 6 6 3 3 2 2 3 4 2 3 3 2 5 8 5 5 8 7 5 2 4 10 12 8 16
9 9 9 9 10 10 10 10 11 11 6 5 6 8 8 8 2 2 4 1 7 3 2 6 6 7 6 3 2 3 4 3 3 3 3 3 2 3 3 4 4 3 5 8 9 10 3 5 3 9 16 16 13 14
8 8 9 10 10 10 10 10 11 9 7 5 7 7 9 9 6 4 4 11 8 1 1 3 6 6 4 3 3 1 2 3 4 3 1 2 2 3 5 5 6 4 6 6 8 10 5 7 9 10 18 20 18 16
10 10 10 10 10 11 10 12 12 5 3 4 7 9 2 2 1 5 4 8 3 2 2 3 3 5 5 3 2 3 2 2 1 1 2 2 2 5 6 6 5 3 3 7 11 2 9 12 11 11 17 18 20 14
12 11 11 10 9 12 12 11 8 5 4 6 1 1 2 4 7 4 4 2 2 2 2 4 2 5 2 2 4 2 1 2 2 4 2 3 4 6 2 2 4 6 8 3 4 5 10 10 10 12 12 13 16 16
11 12 11 10 10 12 11 9 6 1 2 1 2 2 3 8 3 1 2 2 3 3 4 4 5 4 3 3 4 3 2 2 3 3 2 3 3 2 3 3 4 6 8 7 6 7 7 11 11 14 15 16 16 16
11 11 11 11 11 11 10 8 8 3 2 3 2 2 2 2 1 2 4 3 4 5 3 3 5 6 4 3 3 3 3 2 4 2 2 4 2 2 4 6 7 7 7 14 16 16 14 16 14 15 13 17 17 16
12 12 12 11 11 11 11 11 10 5 2 2 0 1 1 2 1 5 5 4 3 4 5 4 4 4 3 2 3 1 3 5 2 3 4 4 3 4 7 8 9 10 12 17 19 19 19 19 17 18 14 14 15 15
13 13 12 11 11 11 10 13 9 6 3 3 3 4 5 4 5 5 4 2 4 1 3 2 3 2 2 1 3 4 4 2 3 2 5 2 5 7 8 8 11 12 13 15 16 18 18 18 17 16 13 12 14 13
12 12 11 11 12 10 16 13 9 2 2 3 3 6 7 5 3 3 4 1 3 1 1 3 3 1 3 3 3 3 3 4 3 3 3 1 7 8 9 8 9 10 11 9 10 11 12 13 13 12 10 11 12 12
10 7 6 11 9 18 16 9 2 2 2 3 5 4 4 1 3 1 1 3 2 1 1 2 2 2 5 3 2 4 5 2 3 4 2 3 5 6 6 7 7 8 9 8 8 10 10 11 11 12 12 12 11 12
5 3 5 14 15 16 13 3 2 3 4 5 5 3 2 2 4 4 4 4 2 2 2 1 3 4 3 4 2 4 3 3 4 2 2 4 6 7 7 8 7 8 9 10 11 10 11 11 12 12 12 11 11 11
4 3 9 19 13 10 2 1 2 4 7 5 4 3 3 4 2 4 4 2 3 3 3 4 2 2 3 3 2 4 4 3 4 3 4 5 6 5 7 9 9 10 9 9 10 11 11 12 11 8 11 11 11 10
4 4 14 20 6 4 4 4 3 5 7 4 3 3 3 4 4 5 4 4 4 3 4 1 4 4 4 3 4 4 4 3 3 3 3 4 7 8 8 10 10 10 9 9 9 7 6 9 10 8 8 8 7 7
9 5 22 19 2 2 3 3 3 4 4 4 2 3 4 5 4 4 5 4 4 3 3 5 6 4 5 3 4 4 3 2 3 5 4 3 5 11 9 11 8 9 8 8 6 8 7 7 7 7 6 8 8 7
5 6 18 7 3 1 2 2 4 4 4 3 3 2 5 1 3 4 4 4 3 5 5 5 4 4 4 4 4 3 4 4 4 4 4 4 5 9 5 6 9 7 8 7 7 6 8 6 7 7 7 6 6 6
3 11 3 2 2 2 4 4 4 3 2 4 3 4 4 3 3 4 3 3 4 5 5 5 6 4 5 5 4 5 3 6 5 6 8 10 7 8 8 7 7 7 7 7 7 7 6 7 7 7 7 6 7 7
11 4 2 3 3 5 6 2 3 4 3 4 3 3 3 3 4 3 2 4 4 4 5 6 6 5 6 5 3 1 3 7 6 7 8 6 6 7 8 8 6 6 5 3 5 6 6 7 7 7 7 8 8 7
8 4 4 5 4 3 2 4 4 3 3 2 3 4 4 4 0 1 3 3 2 1 1 2 3 3 2 2 4 3 4 4 5 6 7 8 8 7 8 9 6 3 5 6 6 6 6 7 8 7 8 9 9 9
5 5 4 4 4 3 4 4 5 4 5 5 4 4 4 2 2 3 3 3 1 1 2 3 1 4 4 3 1 2 4 6 7 7 7 7 7 7 6 7 7 4 4 7 6 8 7 6 7 8 10 10 11 12
3 5 8 8 4 5 4 4 5 6 4 5 6 4 2 2 2 4 1 1 1 0 1 2 3 2 2 2 3 4 5 5 6 6 5 8 10 11 10 10 8 5 4 7 9 10 10 10 10 11 10 11 12 13
4 5 5 4 4 3 4 4 3 4 4 5 3 4 3 2 3 1 1 1 0 2 1 1 1 2 2 3 3 2 5 8 11 8 7 8 8 8 10 11 9 6 5 8 9 12 13 12 11 12 11 8 12 12
5 3 5 4 4 4 3 2 4 4 3 2 3 1 1 2 2 2 3 2 3 2 3 3 4 4 4 4 3 2 4 5 5 6 5 4 3 5 6 5 4 6 5 8 9 9 11 11 11 11 11 10 8 7
4 3 3 3 3 4 6 6 5 4 4 4 3 2 2 2 1 1 1 2 1 1 3 4 4 3 3 3 2 3 5 8 10 10 10 7 4 4 4 5 5 4 4 5 6 9 13 12 12 11 12 10 10 9
4 4 3 4 4 4 4 3 2 2 1 2 2 1 0 0 1 1 0 1 1 3 3 3 3 2 3 5 4 4 1 3 4 9 10 9 8 5 5 6 5 5 5 6 7 5 7 5 6 4 5 5 6 6
3 4 4 3 4 4 3 2 1 1 2 2 1 2 2 2 0 1 0 2 3 2 2 3 4 3 3 5 5 6 3 2 6 7 6 5 5 6 6 5 5 5 7 8 9 8 6 5 6 7 8 9 10 10
5 6 5 5 4 2 1 1 1 2 3 3 3 2 2 1 2 1 2 2 2 1 3 3 2 3 4 2 3 3 3 2 4 5 9 7 6 6 5 5 5 5 6 8 9 9 12 11 9 8 7 8 7 7
4 3 3 2 1 2 2 2 1 2 2 3 4 4 3 3 3 3 2 1 2 2 4 5 6 4 4 4 4 2 2 1 2 1 2 7 9 8 7 6 6 6 9 8 7 8 9 10 8 8 9 10 10 11
Wind_Direction
255 265 273 281 288 303 305 310 316 323 329 291 259 271 294 308 334 6 301 244 61 270 287 252 260 223 241 159 286 320 334 345 336 356 352 335 322 355 317 343 333 209 146 177 106 328 274 4 327 215 300 153 164 167
246 259 267 273 278 290 298 307 310 310 313 290 287 280 295 293 317 336 262 216 182 236 258 296 263 231 213 258 258 233 255 309 271 310 360 304 328 319 334 306 343 65 67 221 190 238 284 331 301 292 277 172 153 127
254 263 264 268 275 283 294 300 303 302 298 275 284 286 302 313 313 310 247 306 5 284 295 329 270 253 220 232 201 172 250 225 251 213 311 309 296 305 325 350 318 326 216 236 322 236 303 355 5 352 16 67 103 118
245 257 269 277 280 285 293 295 296 298 293 249 277 286 289 297 315 324 201 201 187 264 287 281 293 296 234 215 192 213 245 87 274 74 307 295 293 252 286 279 267 242 337 289 291 30 10 348 7 340 68 103 98 105
233 254 264 271 277 281 284 287 290 290 290 241 272 285 301 314 325 315 224 218 203 151 293 292 310 254 215 222 221 216 211 198 10 276 237 256 275 312 282 295 236 297 357 12 309 7 295 288 348 82 108 116 131 124
225 241 256 269 275 277 279 280 281 282 261 249 280 292 307 314 349 20 4 63 189 172 282 304 283 294 306 301 188 179 192 195 223 220 221 244 256 179 273 268 189 29 355 317 290 312 277 264 11 95 115 116 123 124
222 237 256 268 271 275 274 274 274 283 227 250 276 285 295 301 120 191 198 133 212 70 312 292 306 279 301 333 15 105 146 205 199 235 215 232 242 184 249 227 218 327 331 306 313 337 348 38 148 132 119 109 111 106
246 250 253 262 267 269 269 273 275 266 227 278 295 287 288 287 315 265 252 249 218 210 302 284 274 322 349 322 321 19 195 188 216 228 179 227 245 199 258 253 284 288 299 299 329 326 223 114 101 110 111 113 111 112
248 255 257 261 270 268 264 265 283 234 260 296 294 299 285 158 219 236 256 129 151 204 259 243 280 272 349 306 277 323 247 256 302 256 239 179 201 229 233 255 287 314 272 280 310 238 146 132 130 121 114 118 114 117
253 252 254 256 264 267 275 277 249 221 257 299 37 162 263 217 245 281 167 178 174 238 231 251 256 270 18 349 297 321 287 260 260 223 160 221 256 256 29 359 304 293 281 267 285 169 133 135 139 131 124 115 117 114
248 259 260 260 258 269 279 277 177 212 76 98 238 248 268 322 57 72 227 196 169 219 204 244 223 249 223 190 245 202 252 241 267 260 202 244 263 229 42 13 329 308 281 228 210 89 101 114 125 118 114 111 106 111
253 260 259 263 267 271 272 208 154 102 190 173 204 286 324 17 219 226 218 162 210 227 205 210 240 202 262 195 211 255 246 208 246 135 220 262 264 89 79 62 22 10 34 94 100 101 95 90 97 101 103 108 107 108
253 257 265 252 260 271 292 178 165 156 94 62 284 275 138 281 111 208 203 236 213 199 186 216 282 214 295 194 261 235 260 235 85 225 235 236 129 115 101 95 76 73 76 89 92 94 94 94 92 97 102 98 100 100
253 254 254 264 259 251 214 163 163 137 99 154 194 251 179 217 239 203 191 209 249 202 267 225 257 222 256 262 226 252 243 93 267 250 243 194 146 124 108 110 104 95 92 92 95 99 99 100 99 97 103 111 112 106
246 256 264 263 231 252 168 155 147 65 137 212 187 236 219 218 253 236 245 352 263 201 31 327 297 139 278 277 235 298 255 251 246 302 289 129 136 132 130 128 122 119 114 105 107 104 107 110 105 110 111 107 109 113
249 277 238 231 227 157 148 132 93 94 261 237 237 250 249 72 265 253 224 262 260 220 83 64 275 295 254 237 247 264 312 320 316 323 292 118 135 126 129 128 119 117 113 114 115 116 113 112 117 122 120 117 113 113
222 241 239 185 161 139 134 110 99 215 230 230 242 221 227 276 228 236 200 231 180 93 215 157 248 221 309 245 241 336 298 269 258 289 113 150 135 132 131 129 114 110 109 115 118 113 112 114 118 117 117 119 118 118
215 278 179 150 138 127 54 50 248 240 247 237 224 221 194 211 213 262 250 225 154 196 158 215 214 242 232 303 292 242 256 278 286 170 156 153 140 134 131 128 123 123 119 117 123 129 133 128 117 113 112 114 108 108
203 205 179 144 141 131 141 178 226 261 241 245 250 234 210 232 216 226 233 239 200 204 130 162 236 214 207 229 239 270 261 238 208 164 161 167 143 143 136 129 127 127 129 131 131 130 122 115 120 124 128 125 118 121
222 265 168 158 135 87 193 218 180 246 268 244 239 232 211 216 208 211 226 211 168 172 174 209 223 217 192 222 220 240 248 232 153 156 136 125 143 128 146 138 141 138 129 119 110 109 111 107 109 124 128 131 128 129
150 202 153 115 108 55 292 260 222 221 261 260 256 216 253 251 220 207 223 170 162 189 215 221 231 243 224 241 228 234 245 184 173 174 159 129 144 137 123 124 133 136 136 137 137 134 129 138 137 130 134 129 123 120
94 71 83 69 102 167 249 225 221 265 235 249 288 213 254 261 240 223 168 157 208 217 194 202 232 243 268 269 279 230 215 147 146 119 111 129 138 131 139 144 134 143 148 150 145 145 142 134 129 135 125 119 116 120
93 93 115 130 189 200 258 144 208 231 240 257 266 248 238 238 219 143 230 215 235 218 199 201 211 209 222 246 237 67 143 148 156 154 152 148 143 140 139 133 123 139 141 138 138 138 141 135 132 132 126 129 127 127
129 138 164 182 179 239 238 224 219 234 234 238 253 262 249 223 321 148 242 252 253 318 17 256 187 218 276 178 214 194 171 142 127 140 155 146 144 150 153 142 156 158 167 146 147 142 143 153 143 142 147 149 152 154
119 175 181 206 188 223 237 227 196 216 230 212 226 259 250 150 187 235 225 256 318 1 352 345 350 195 192 206 201 159 166 155 150 149 160 156 144 133 139 155 184 168 149 145 159 156 163 156 164 160 162 164 169 170
176 204 184 192 184 210 216 240 202 205 205 208 235 239 145 161 219 234 230 323 161 39 37 21 5 22 46 357 207 174 182 158 137 144 166 161 162 159 162 173 185 206 185 184 169 168 165 171 173 173 177 176 170 166
192 215 211 219 191 199 241 258 203 230 208 221 228 188 159 210 238 71 354 111 59 270 293 211 168 313 301 317 308 230 156 164 177 181 160 163 172 174 166 179 185 199 164 168 173 169 168 169 171 178 181 174 176 175
223 230 202 194 198 208 226 257 268 232 202 2 304 313 216 231 217 242 229 220 217 256 288 273 247 235 241 261 261 168 119 123 109 104 84 82 120 142 154 173 149 163 169 172 173 168 166 168 171 170 170 175 178 177
221 229 168 238 204 203 205 215 224 254 156 151 152 269 241 209 212 206 268 294 320 289 282 281 279 253 249 207 180 136 146 150 144 154 154 164 157 216 191 180 162 177 174 165 185 173 170 168 171 174 179 181 186 174
231 176 197 194 200 238 234 208 232 216 74 118 165 171 31 199 173 129 84 264 295 274 269 266 259 239 203 163 148 125 153 163 164 166 169 178 190 173 169 190 189 177 177 171 165 112 76 91 87 89 125 134 150 163
195 162 195 225 247 226 229 255 310 329 110 188 290 211 186 215 283 172 91 291 289 294 269 273 263 234 197 164 154 145 171 200 186 180 163 165 178 182 190 194 183 164 167 166 163 162 145 141 154 156 170 176 179 176
173 201 185 204 240 249 16 181 184 235 207 177 214 199 172 134 233 289 306 349 30 39 15 357 343 285 240 171 139 137 153 222 205 196 189 189 195 188 172 158 152 153 150 155 165 163 167 164 167 171 173 168 153 140
184 169 162 89 287 232 205 137 232 258 195 205 216 184 186 182 225 223 301 23 89 48 3 341 348 350 52 78 128 85 291 325 113 247 205 169 168 151 153 151 144 143 149 143 137 138 140 138 132 139 139 138 137 134